Terminal Aerodrome Forecast
Issued by NWS

Home | Current Version | Previous Version | Text Only | Print | Product List | Glossary On
Versions: 1 2 3 4 5 6 7 8 9 10 11 12 13 14 15
000
FTPQ31 PGUM 252300
TAFPQ
TAF

PGRO 252321Z 2600/2624 07012KT P6SM VCSH FEW018 SCT040 SCT120=

USA.gov is the U.S. government's official web portal to all federal, state and local government web resources and services.